Effective Sunday, March 17, 2024, the National Weather Service National Data Buoy Center will discontinue its Dial-A-Buoy Interactive Voice Response system. For more information, see Service Change Notice 24-06 (PDF).

Station NIAN6 - 9063012 - Niagara Intake, NY Image indicating link to RSS feed of recent meteorological observations for station NIAN6


Conditions at NIAN6 as of
(8:48 pm EST on 03/02/2024)
0148 GMT on 03/03/2024:
     

Click on the graph icon in the table below to see a time series plot of the last five days of that observation.

5-day plot - Atmospheric Pressure Atmospheric Pressure (PRES):30.14 in
5-day plot - Air Temperature Air Temperature (ATMP): 43.3 °F
NOS Water Level Observation Network Water Level
Previous observations
TIME
(EST)
5-day plot - Wind Direction
WDIR
 
5-day plot - Wind Speed
WSPD
kts
5-day plot - Wind Gust
GST
kts
5-day plot - Wave Height
WVHT
ft
5-day plot - Dominant Wave Period
DPD
sec
5-day plot - Average Wave Period
APD
sec
5-day plot - Mean Wave Direction
MWD
 
5-day plot - Atmospheric Pressure
PRES
in
5-day plot - Pressure Tendency
PTDY
in
5-day plot - Air Temperature
ATMP
°F
5-day plot - Water Temperature
WTMP
°F
5-day plot - Dew Point
DEWP
°F
5-day plot - Salinity
SAL
psu
5-day plot - Visibility
VIS
nmi
5-day plot - Tide (above MLLW)
TIDE
ft
2024-03-02 08:42 pm-------30.14- 42.8-----
2024-03-02 08:36 pm-------30.14- 42.8-----
2024-03-02 08:30 pm-------30.14- 42.6-----
2024-03-02 08:24 pm-------30.14- 42.4-----
2024-03-02 08:18 pm-------30.14- 42.6-----
2024-03-02 08:12 pm-------30.14- 42.6-----
2024-03-02 08:06 pm-------30.14- 42.4-----
2024-03-02 08:00 pm-------30.14+0.03 42.4-----
2024-03-02 07:54 pm-------30.14- 42.8-----
2024-03-02 07:48 pm-------30.14- 43.2-----
2024-03-02 07:42 pm-------30.14- 42.6-----
2024-03-02 07:36 pm-------30.14- 43.5-----
2024-03-02 07:30 pm-------30.14- 43.3-----
2024-03-02 07:24 pm-------30.14- 43.3-----
2024-03-02 07:18 pm-------30.14- 43.7-----
2024-03-02 07:12 pm-------30.14- 43.7-----
2024-03-02 07:06 pm-------30.13- 43.9-----
2024-03-02 07:00 pm-------30.13+0.01 43.9-----
2024-03-02 06:54 pm-------30.13- 43.7-----
2024-03-02 06:48 pm-------30.13-------
2024-03-02 06:42 pm-------30.12-------
2024-03-02 06:36 pm-------30.12-------
2024-03-02 06:30 pm-------30.12- 45.7-----
2024-03-02 06:24 pm-------30.12- 45.7-----
2024-03-02 06:00 pm-------30.12- 46.2-----
2024-03-02 05:54 pm-------30.12- 45.9-----
2024-03-02 05:48 pm-------30.12- 45.3-----
2024-03-02 05:42 pm-------30.12- 45.0-----
2024-03-02 05:36 pm-------30.12- 44.8-----
2024-03-02 05:30 pm-------30.12-------
2024-03-02 05:24 pm-------30.12-------
2024-03-02 05:18 pm-------30.11-------
2024-03-02 05:12 pm-------30.12-------
2024-03-02 05:06 pm-------30.12-------
2024-03-02 05:00 pm-------30.11+0.00 45.0-----
2024-03-02 04:54 pm-------30.11- 45.3-----
2024-03-02 04:48 pm-------30.11- 43.9-----
2024-03-02 04:42 pm-------30.11- 43.5-----
2024-03-02 04:36 pm-------30.11- 45.3-----
2024-03-02 04:30 pm-------30.11- 45.3-----
2024-03-02 04:24 pm-------30.11- 45.7-----
2024-03-02 04:18 pm-------30.11- 46.2-----
2024-03-02 04:12 pm-------30.11- 44.4-----
2024-03-02 04:06 pm-------30.11- 45.3-----
2024-03-02 04:00 pm-------30.11-0.01 46.0-----
2024-03-02 03:54 pm-------30.11- 46.0-----
2024-03-02 03:48 pm-------30.11-------
2024-03-02 03:42 pm-------30.11-------
2024-03-02 03:36 pm-------30.11-------
2024-03-02 03:30 pm-------30.11- 46.9-----
2024-03-02 03:24 pm-------30.11- 45.9-----
2024-03-02 03:18 pm-------30.11- 46.2-----
2024-03-02 03:12 pm-------30.11- 45.9-----
2024-03-02 03:06 pm-------30.11- 45.3-----
2024-03-02 03:00 pm--------- 46.0-----
2024-03-02 02:54 pm--------- 45.1-----
2024-03-02 02:48 pm-------30.11- 45.1-----
2024-03-02 02:42 pm-------30.11- 46.6-----
2024-03-02 02:36 pm-------30.11- 45.7-----
2024-03-02 02:30 pm-------30.11- 46.2-----
2024-03-02 02:24 pm-------30.11- 46.4-----
2024-03-02 02:18 pm-------30.11- 46.4-----
2024-03-02 02:12 pm-------30.12- 46.0-----
2024-03-02 02:06 pm-------30.12- 46.0-----
2024-03-02 02:00 pm-------30.12-0.04 45.3-----
2024-03-02 01:54 pm-------30.12- 45.0-----
2024-03-02 01:48 pm-------30.12- 44.6-----
2024-03-02 01:42 pm-------30.12- 45.0-----
2024-03-02 01:36 pm-------30.13- 44.8-----
2024-03-02 01:30 pm-------30.13- 44.4-----
2024-03-02 01:24 pm-------30.13- 44.4-----
2024-03-02 01:18 pm-------30.13- 45.3-----
2024-03-02 01:12 pm-------30.13- 46.0-----
2024-03-02 01:06 pm-------30.13- 45.9-----
2024-03-02 01:00 pm-------30.13-0.03 45.9-----
2024-03-02 12:54 pm-------30.13- 45.7-----
2024-03-02 12:48 pm-------30.13- 45.7-----
2024-03-02 12:42 pm-------30.14- 45.5-----
2024-03-02 12:36 pm-------30.14- 45.3-----
2024-03-02 12:30 pm-------30.14- 45.0-----
2024-03-02 12:24 pm-------30.14- 45.1-----
2024-03-02 12:18 pm-------30.14- 44.8-----
2024-03-02 12:12 pm-------30.14- 44.6-----
2024-03-02 12:06 pm-------30.14- 44.4-----
2024-03-02 12:00 pm-------30.14-0.02 44.2-----
2024-03-02 11:54 am-------30.15- 44.2-----
2024-03-02 11:48 am-------30.15- 44.2-----
2024-03-02 11:42 am-------30.15- 44.1-----
2024-03-02 11:36 am-------30.15- 44.1-----
2024-03-02 11:30 am-------30.15- 44.2-----
2024-03-02 11:24 am-------30.15- 44.1-----
2024-03-02 11:18 am-------30.15- 43.9-----
2024-03-02 11:12 am-------30.15- 43.7-----
2024-03-02 11:06 am-------30.16- 43.3-----
2024-03-02 11:00 am-------30.16-0.01 43.3-----
2024-03-02 10:54 am-------30.16- 43.2-----
2024-03-02 10:48 am-------30.15- 43.0-----
2024-03-02 10:42 am-------30.16- 43.2-----
2024-03-02 10:36 am-------30.16- 43.0-----
2024-03-02 10:30 am-------30.16-------
2024-03-02 10:24 am-------30.16-------
2024-03-02 10:18 am-------30.16- 43.2-----
2024-03-02 10:12 am-------30.16- 42.6-----
2024-03-02 10:06 am-------30.16- 42.6-----
2024-03-02 10:00 am-------30.16+0.00 42.6-----
2024-03-02 09:54 am-------30.16- 42.4-----
2024-03-02 09:48 am-------30.16- 41.9-----
2024-03-02 09:42 am-------30.16- 41.9-----
2024-03-02 09:36 am-------30.16- 41.5-----
2024-03-02 09:30 am-------30.16- 41.4-----
2024-03-02 09:24 am-------30.16- 41.0-----
2024-03-02 09:18 am-------30.16- 40.8-----
2024-03-02 09:12 am-------30.16- 40.6-----
2024-03-02 09:06 am-------30.16- 40.5-----
2024-03-02 09:00 am-------30.16+0.00 40.6-----
2024-03-02 08:54 am-------30.16- 40.5-----
2024-03-02 08:48 am-------30.16- 40.6-----
2024-03-02 08:42 am-------30.17- 40.6-----
2024-03-02 08:36 am-------30.17- 40.6-----
2024-03-02 08:30 am-------30.17- 40.5-----
2024-03-02 08:24 am-------30.17- 40.5-----
2024-03-02 08:18 am-------30.17- 40.5-----
2024-03-02 08:12 am-------30.17- 40.6-----
2024-03-02 08:06 am-------30.17- 40.6-----
2024-03-02 08:00 am-------30.17+0.00 40.5-----
2024-03-02 07:54 am-------30.17- 40.5-----
2024-03-02 07:48 am-------30.17-------
2024-03-02 07:42 am-------30.16-------
2024-03-02 07:36 am-------30.16-------
2024-03-02 07:30 am-------30.16- 40.3-----
2024-03-02 07:24 am-------30.16- 40.5-----
2024-03-02 07:18 am-------30.16- 40.5-----
2024-03-02 07:12 am-------30.16- 40.5-----
2024-03-02 07:06 am-------30.16- 40.5-----
2024-03-02 07:00 am-------30.16+0.00 40.3-----
2024-03-02 06:54 am-------30.16- 40.3-----
2024-03-02 06:48 am-------30.16- 40.3-----
2024-03-02 06:42 am-------30.16- 40.5-----
2024-03-02 06:36 am-------30.16- 40.6-----
2024-03-02 06:30 am-------30.16-------
2024-03-02 06:24 am-------30.16-------
2024-03-02 06:18 am-------30.16- 41.0-----
2024-03-02 06:12 am-------30.16- 41.2-----
2024-03-02 06:06 am-------30.16- 41.0-----
2024-03-02 06:00 am-------30.16-0.03------
2024-03-02 05:54 am-------30.16-------
2024-03-02 05:48 am-------30.16-------
2024-03-02 05:42 am-------30.16-------
2024-03-02 05:36 am-------30.16-------
2024-03-02 05:30 am-------30.17- 41.5-----
2024-03-02 05:24 am-------30.16- 41.4-----
2024-03-02 05:18 am-------30.16-------
2024-03-02 05:12 am-------30.17-------
2024-03-02 05:06 am-------30.16-------
2024-03-02 05:00 am-------30.16-0.05 42.1-----
2024-03-02 04:54 am-------30.16- 42.6-----
2024-03-02 04:48 am-------30.16- 42.8-----
2024-03-02 04:42 am-------30.17- 43.2-----
2024-03-02 04:36 am-------30.17- 43.3-----
2024-03-02 04:30 am-------30.17- 43.5-----
2024-03-02 04:24 am-------30.17- 43.7-----
2024-03-02 04:18 am-------30.17- 43.9-----
2024-03-02 04:12 am-------30.17- 43.3-----
2024-03-02 04:06 am-------30.17- 42.4-----
2024-03-02 04:00 am-------30.17-0.04 43.3-----
2024-03-02 03:54 am-------30.17- 43.9-----
2024-03-02 03:48 am-------30.17- 44.4-----
2024-03-02 03:42 am-------30.18- 43.9-----
2024-03-02 03:36 am-------30.18- 43.7-----
2024-03-02 03:30 am-------30.18- 43.3-----
2024-03-02 03:24 am-------30.18- 43.7-----
2024-03-02 03:18 am-------30.19- 43.7-----
2024-03-02 03:12 am-------30.19- 43.2-----
2024-03-02 03:06 am-------30.19- 42.1-----
2024-03-02 03:00 am-------30.19-0.02 43.2-----
2024-03-02 02:54 am-------30.19- 43.3-----
2024-03-02 02:48 am-------30.20- 43.3-----
2024-03-02 02:42 am-------30.19- 42.8-----
2024-03-02 02:36 am-------30.20- 43.3-----
2024-03-02 02:30 am-------30.20- 43.9-----
2024-03-02 02:24 am-------30.20- 43.3-----
2024-03-02 02:18 am-------30.21- 44.1-----
2024-03-02 02:12 am-------30.21- 43.7-----
2024-03-02 02:06 am-------30.21- 43.2-----
2024-03-02 02:00 am-------30.22+0.00 42.6-----
2024-03-02 01:54 am-------30.22- 42.8-----
2024-03-02 01:48 am-------30.21- 43.0-----
2024-03-02 01:42 am-------30.21- 43.5-----
2024-03-02 01:36 am-------30.21- 43.9-----
2024-03-02 01:30 am-------30.21- 43.9-----
2024-03-02 01:24 am-------30.21- 43.9-----
2024-03-02 01:18 am-------30.21- 43.7-----
2024-03-02 01:12 am-------30.21- 43.7-----
2024-03-02 01:06 am-------30.21- 43.7-----
2024-03-02 01:00 am-------30.21-0.01 43.3-----
2024-03-02 12:54 am-------30.21- 43.7-----
2024-03-02 12:48 am-------30.21- 43.7-----
2024-03-02 12:42 am-------30.21- 43.5-----
2024-03-02 12:36 am-------30.21- 43.2-----
2024-03-02 12:30 am-------30.21- 43.3-----
2024-03-02 12:24 am-------30.21- 43.2-----
2024-03-02 12:18 am-------30.21- 43.3-----
2024-03-02 12:12 am-------30.21- 43.3-----
2024-03-02 12:06 am-------30.21- 43.5-----
2024-03-02 12:00 am-------30.21-0.03 43.5-----
2024-03-01 11:54 pm-------30.21- 43.3-----
2024-03-01 11:48 pm-------30.21- 43.3-----
2024-03-01 11:42 pm-------30.21- 43.2-----
2024-03-01 11:36 pm-------30.21- 43.5-----
2024-03-01 11:30 pm-------30.21- 43.5-----
2024-03-01 11:24 pm-------30.21- 43.3-----
2024-03-01 11:18 pm-------30.21- 43.5-----
2024-03-01 11:12 pm-------30.21- 43.3-----
2024-03-01 11:06 pm-------30.22- 43.3-----
2024-03-01 11:00 pm-------30.22-0.03 43.3-----
2024-03-01 10:54 pm-------30.22- 43.5-----
2024-03-01 10:48 pm-------30.22- 43.3-----
2024-03-01 10:42 pm-------30.22- 43.3-----
2024-03-01 10:36 pm-------30.22- 43.5-----
2024-03-01 10:30 pm-------30.22- 43.3-----
2024-03-01 10:24 pm-------30.22- 43.7-----
2024-03-01 10:18 pm-------30.22- 43.9-----
2024-03-01 10:12 pm-------30.22- 43.7-----
2024-03-01 10:06 pm-------30.22- 43.5-----
2024-03-01 10:00 pm-------30.22-0.02 44.1-----
2024-03-01 09:54 pm-------30.22- 43.9-----
2024-03-01 09:48 pm-------30.22- 44.1-----
2024-03-01 09:42 pm-------30.23- 44.1-----
2024-03-01 09:36 pm-------30.23- 44.2-----
2024-03-01 09:30 pm-------30.23- 44.2-----
2024-03-01 09:24 pm-------30.23- 44.4-----
2024-03-01 09:18 pm-------30.23- 45.0-----
2024-03-01 09:12 pm-------30.23- 45.0-----
2024-03-01 09:06 pm-------30.23- 45.1-----
2024-03-01 09:00 pm-------30.24-0.01 45.1-----
2024-03-01 08:54 pm-------30.24- 45.0-----